Location: Bittkow
(50.3000°N, 19.0000°E)
Time: 13:31:05
(UTC+00:00)

SAR-Lupe-4 - Pass Details

Date: 19 September 2020
Orbit: 482 x 484 km, 98.2° (Epoch: 09 October)

Event Time Altitude Azimuth Distance (km) Brightness Sun altitude
Rises 03:31:49 0° 175° (S) 2,539 7.1 -9.4°
Reaches altitude 10° 03:33:55 10° 180° (S) 1,663 6.1 -9.1°
Maximum altitude 03:37:24 53° 258° (WSW) 605 3.7 -8.5°
Drops below altitude 10° 03:40:57 10° 337° (NNW) 1,677 6.2 -8.0°
Sets 03:43:03 0° 342° (NNW) 2,562 7.2 -7.7°
